User: anonymous   Login
Location: Banios
(43.0451°N, 0.2335°E)
Time: 14:41:39
(UTC+00:00)
Language:

Cosmos 1626 Rocket - Orbit

View from above orbital plane
View from above orbital plane
View from above satellite
View from above satellite

Ground track
Ground track

The orbit data is extracted from the following two-line orbital elements,

1 15495U 85009B   21206.77915754  .00000097  00000-0  87469-5 0  9997
2 15495  82.5224 222.5963 0021535  64.4370 295.9068 14.83915804951184
Epoch (UTC): 25 July 2021 18:41:59
Eccentricity: 0.0021535
inclination: 82.5224°
perigee height: 602 km
apogee height: 632 km
right ascension of ascending node: 222.5963°
argument of perigee: 64.4370°
revolutions per day: 14.83915804
mean anomaly at epoch: 295.9068°
orbit number at epoch: 95118

The dashed part of the orbit path shows where the satellite is in the earth's shadow,  

DLR